Location: Newark
(36.9167°N, 76.2000°W)
Time: 18:43:25
(UTC+00:00)

Hubble Space Telescope - Visible Passes

Search period start: 22 September 2020 00:00
Search period end: 02 October 2020 00:00
Orbit: 536 x 540 km, 28.5° (Epoch: 21 September)

Date Brightness Start Highest point End Pass type
(mag) Time Alt. Az. Time Alt. Az. Time Alt. Az.
24 Sep 3.4 09:37:21 10° S 09:38:15 11° SSE 09:39:08 10° SSE visible
25 Sep 3.2 09:25:46 11° S 09:27:24 13° SSE 09:29:16 10° SE visible
26 Sep 2.9 09:15:47 14° S 09:16:34 15° SSE 09:18:56 10° SE visible
27 Sep 2.8 09:05:46 17° SSE 09:05:46 17° SSE 09:08:28 10° SE visible
28 Sep 2.8 08:55:43 18° SSE 08:55:43 18° SSE 08:57:53 10° ESE visible
28 Sep 2.4 10:32:10 10° WSW 10:35:33 25° S 10:38:57 10° SE visible
29 Sep 3.0 08:45:40 17° SE 08:45:40 17° SE 08:47:14 10° ESE visible
29 Sep 2.3 10:21:23 10° WSW 10:24:46 24° S 10:28:07 10° SE visible
30 Sep 3.3 08:35:36 15° SE 08:35:36 15° SE 08:36:33 10° ESE visible
30 Sep 2.3 10:10:56 11° WSW 10:13:57 23° S 10:17:16 10° SE visible
01 Oct 3.7 08:25:33 11° ESE 08:25:33 11° ESE 08:25:49 10° ESE visible
01 Oct 2.4 10:00:53 15° SW 10:03:08 22° S 10:06:21 10° SE visible
